Weather History for Tampa Macdill AFB, FL

Change the Weather History Date:

Sunday, December 23, 2012

  Actual Average Record
Temperature  
Mean Temperature 51 °F -  
Max Temperature 66 °F 68 °F 82 °F (1998)
Min Temperature 36 °F 50 °F 36 °F (2012)
Degree Days  
Heating Degree Days 14    
Growing Degree Days 1 (Base 50)    
Moisture  
Dew Point 38 °F    
Average Humidity 66    
Maximum Humidity 98    
Minimum Humidity 28    
Precipitation  
Precipitation 0.00 in - - ()
Sea Level Pressure  
Sea Level Pressure 30.22 in    
Wind  
Wind Speed 5 mph (ENE)    
Max Wind Speed 9 mph    
Max Gust Speed -    
Visibility 10 miles    
Events      
Averages and records for this station are not official NWS values.
T = Trace of Precipitation, MM = Missing Value Source: NWS Daily Summary

Daily Weather History Graph

Daily Weather History Graph

Search for Another Location

Airport:

Trip Planner

Search our weather history database for the weather conditions in past years. The results will help you decide how hot, cold, wet, or windy it might be!

Date:

Astronomy

Dec. 23, 2012 Rise Set
Actual Time 7:18 AM EST 5:40 PM EST
Civil Twilight 6:52 AM EST 6:06 PM EST
Nautical Twilight 6:23 AM EST 6:35 PM EST
Astronomical Twilight 5:54 AM EST 7:04 PM EST
Moon 2:21 PM EST 3:10 AM EST
Length of Visible Light 11h 14m
Length of Day
10h 22m
Waxing Gibbous, 81% of the Moon is Illuminated
Dec 23
Waxing Gibbous
Dec 28
Full
Jan 4
Last Quarter
Jan 11
New
Jan 18
First Quarter

Hourly Weather History & Observations

Time (EST) Temp. Windchill Dew Point Humidity Pressure Visibility Wind Dir Wind Speed Gust Speed Precip Events Conditions
12:55 AM 38.5 °F 34.1 °F 36.0 °F 91% 30.26 in 10.0 mi NE 5.8 mph - N/A   Clear
1:55 AM 37.6 °F 33.1 °F 35.8 °F 93% 30.25 in 10.0 mi ENE 5.8 mph - N/A   Clear
2:55 AM 40.5 °F 37.3 °F 39.9 °F 98% 30.24 in 10.0 mi NE 4.6 mph - N/A   Clear
3:55 AM 40.6 °F 37.5 °F 39.9 °F 97% 30.23 in 10.0 mi ENE 4.6 mph - N/A   Clear
4:55 AM 37.0 °F 31.0 °F 36.0 °F 96% 30.23 in 10.0 mi ENE 8.1 mph - N/A   Clear
5:55 AM 36.9 °F 30.7 °F 36.1 °F 97% 30.23 in 10.0 mi East 8.1 mph - N/A   Clear
6:55 AM 37.4 °F 32.1 °F 36.3 °F 96% 30.26 in 10.0 mi ENE 6.9 mph - N/A   Clear
7:55 AM 37.4 °F 32.1 °F 36.5 °F 97% 30.27 in 10.0 mi ENE 6.9 mph - N/A   Clear
8:55 AM 48.7 °F - 41.5 °F 76% 30.27 in 10.0 mi East 6.9 mph - N/A   Clear
9:55 AM 53.4 °F - 36.3 °F 52% 30.28 in 10.0 mi East 9.2 mph - N/A   Clear
10:55 AM 55.9 °F - 33.3 °F 42% 30.27 in 10.0 mi East 6.9 mph - N/A   Clear
11:55 AM 59.2 °F - 32.7 °F 37% 30.25 in 10.0 mi ESE 5.8 mph - N/A   Clear
12:55 PM 64.2 °F - 33.6 °F 32% 30.22 in 10.0 mi South 6.9 mph - N/A   Clear
1:55 PM 66.4 °F - 32.9 °F 29% 30.20 in 10.0 mi Calm Calm - N/A   Clear
2:55 PM 66.2 °F - 34.5 °F 31% 30.19 in 10.0 mi West 4.6 mph - N/A   Clear
3:55 PM 64.8 °F - 30.7 °F 28% 30.19 in 10.0 mi Calm Calm - N/A   Clear
4:55 PM 61.9 °F - 37.0 °F 40% 30.19 in 10.0 mi NNE 3.5 mph - N/A   Scattered Clouds
5:55 PM 58.1 °F - 42.6 °F 56% 30.19 in 10.0 mi Calm Calm - N/A   Overcast
6:55 PM 54.9 °F - 42.6 °F 63% 30.18 in 10.0 mi Calm Calm - N/A   Overcast
7:55 PM 54.1 °F - 43.5 °F 67% 30.18 in 10.0 mi East 4.6 mph - N/A   Overcast
8:55 PM 54.1 °F - 44.8 °F 71% 30.18 in 10.0 mi ENE 3.5 mph - N/A   Overcast
9:55 PM 54.9 °F - 45.1 °F 70% 30.18 in 10.0 mi East 3.5 mph - N/A   Overcast
10:55 PM 55.6 °F - 44.6 °F 67% 30.17 in 10.0 mi East 3.5 mph - N/A   Overcast
11:55 PM 54.0 °F - 43.7 °F 68% 30.16 in 10.0 mi Calm Calm - N/A   Overcast